| time (UTC) | temp C | wind direction | speed KPH | gust KPH | rain 1hr cm | rain 24hr cm | rain mn cm | humidity % | barometer mb |
| 20260505065624 | 10 | 204 | 22.5 | 33.8 | 0.00 | 0.00 | 0.00 | 82 | 1011.5 |
| 20260505064624 | 10 | 205 | 24.1 | 33.8 | 0.00 | 0.00 | 0.00 | 82 | 1011.7 |
| 20260505063602 | 10 | 206 | 25.7 | 38.6 | 0.00 | 0.00 | 0.00 | 81 | 1011.7 |
| 20260505061603 | 10 | 202 | 25.7 | 35.4 | 0.00 | 0.00 | 0.00 | 80 | 1011.6 |
| 20260505060602 | 10 | 202 | 24.1 | 33.8 | 0.00 | 0.00 | 0.00 | 80 | 1011.7 |
| 20260505055603 | 10 | 212 | 24.1 | 33.8 | 0.00 | 0.00 | 0.00 | 80 | 1011.6 |
| 20260505054603 | 10 | 206 | 24.1 | 37.0 | 0.00 | 0.00 | 0.00 | 80 | 1011.7 |
| 20260505053603 | 10 | 196 | 24.1 | 33.8 | 0.00 | 0.00 | 0.00 | 79 | 1011.6 |
| 20260505052602 | 10 | 200 | 22.5 | 32.2 | 0.00 | 0.00 | 0.00 | 79 | 1011.7 |
| 20260505051624 | 10 | 204 | 24.1 | 33.8 | 0.00 | 0.00 | 0.00 | 78 | 1011.7 |
| 20260505050623 | 10 | 199 | 22.5 | 35.4 | 0.00 | 0.00 | 0.00 | 77 | 1011.8 |
| 20260505040602 | 11 | 204 | 25.7 | 38.6 | 0.00 | 0.00 | 0.00 | 73 | 1012.1 |
| 20260505035603 | 11 | 198 | 30.6 | 38.6 | 0.00 | 0.00 | 0.00 | 73 | 1011.9 |
| 20260505034602 | 11 | 198 | 27.4 | 45.1 | 0.00 | 0.00 | 0.00 | 72 | 1011.9 |
| 20260505033603 | 11 | 196 | 25.7 | 35.4 | 0.00 | 0.00 | 0.00 | 71 | 1011.8 |
| 20260505032602 | 11 | 193 | 27.4 | 40.2 | 0.00 | 0.00 | 0.00 | 70 | 1011.8 |
| 20260505031603 | 11 | 194 | 25.7 | 45.1 | 0.00 | 0.00 | 0.00 | 69 | 1011.8 |
| 20260505025624 | 11 | 201 | 27.4 | 41.8 | 0.00 | 0.00 | 0.00 | 68 | 1012.0 |
| 20260505024602 | 11 | 199 | 25.7 | 40.2 | 0.00 | 0.00 | 0.00 | 67 | 1012.0 |
| 20260505023603 | 12 | 199 | 25.7 | 37.0 | 0.00 | 0.00 | 0.00 | 66 | 1012.0 |
| 20260505022602 | 12 | 197 | 27.4 | 38.6 | 0.00 | 0.00 | 0.00 | 65 | 1011.9 |
| 20260505021603 | 12 | 203 | 25.7 | 38.6 | 0.00 | 0.00 | 0.00 | 63 | 1012.0 |
| 20260505015603 | 12 | 200 | 29.0 | 45.1 | 0.00 | 0.00 | 0.00 | 61 | 1011.9 |
| 20260505014603 | 12 | 194 | 24.1 | 37.0 | 0.00 | 0.00 | 0.00 | 60 | 1011.9 |
| 20260505013603 | 12 | 203 | 25.7 | 38.6 | 0.00 | 0.00 | 0.00 | 59 | 1011.6 |
| 20260505012623 | 13 | 203 | 25.7 | 35.4 | 0.00 | 0.00 | 0.00 | 57 | 1011.8 |
| 20260505011603 | 13 | 200 | 24.1 | 32.2 | 0.00 | 0.00 | 0.00 | 56 | 1011.5 |
| 20260505010602 | 13 | 201 | 24.1 | 37.0 | 0.00 | 0.00 | 0.00 | 55 | 1011.3 |
| 20260505005603 | 13 | 208 | 25.7 | 41.8 | 0.00 | 0.00 | 0.00 | 54 | 1011.3 |
| 20260505004602 | 13 | 208 | 27.4 | 38.6 | 0.00 | 0.00 | 0.00 | 53 | 1011.1 |
| 20260505003603 | 13 | 207 | 37.0 | 51.5 | 0.00 | 0.00 | 0.00 | 53 | 1010.8 |
| 20260505002603 | 13 | 201 | 30.6 | 53.1 | 0.00 | 0.00 | 0.00 | 53 | 1010.6 |
| 20260505001603 | 13 | 196 | 29.0 | 48.3 | 0.00 | 0.00 | 0.00 | 53 | 1010.5 |
| 20260504235602 | 15 | 189 | 30.6 | 53.1 | 0.00 | 0.00 | 0.00 | 51 | 1010.3 |
| 20260504234624 | 15 | 187 | 33.8 | 49.9 | 0.00 | 0.00 | 0.00 | 49 | 1010.0 |
| 20260504233623 | 16 | 182 | 30.6 | 48.3 | 0.00 | 0.00 | 0.00 | 47 | 1009.8 |
| 20260504232603 | 16 | 201 | 30.6 | 46.7 | 0.00 | 0.00 | 0.00 | 45 | 1009.7 |
| 20260504231602 | 16 | 207 | 32.2 | 57.9 | 0.00 | 0.00 | 0.00 | 44 | 1009.4 |
| 20260504230603 | 17 | 208 | 33.8 | 57.9 | 0.00 | 0.00 | 0.00 | 44 | 1009.0 |
| 20260504225623 | 17 | 209 | 33.8 | 48.3 | 0.00 | 0.00 | 0.00 | 43 | 1009.0 |
| 20260504224603 | 17 | 200 | 35.4 | 61.2 | 0.00 | 0.00 | 0.00 | 42 | 1008.8 |
| 20260504223602 | 18 | 207 | 33.8 | 54.7 | 0.00 | 0.00 | 0.00 | 41 | 1008.7 |
| 20260504221603 | 18 | 213 | 32.2 | 57.9 | 0.00 | 0.00 | 0.00 | 40 | 1008.7 |
| 20260504220602 | 18 | 215 | 33.8 | 54.7 | 0.00 | 0.00 | 0.00 | 38 | 1008.4 |
| 20260504215603 | 19 | 197 | 32.2 | 49.9 | 0.00 | 0.00 | 0.00 | 37 | 1008.5 |
| 20260504214602 | 20 | 205 | 35.4 | 53.1 | 0.00 | 0.00 | 0.00 | 36 | 1008.5 |
| 20260504213603 | 20 | 201 | 29.0 | 46.7 | 0.00 | 0.00 | 0.00 | 36 | 1008.6 |
| 20260504212603 | 20 | 193 | 25.7 | 49.9 | 0.00 | 0.00 | 0.00 | 35 | 1008.5 |
| 20260504211603 | 20 | 227 | 32.2 | 45.1 | 0.00 | 0.00 | 0.00 | 31 | 1008.6 |
| 20260504205603 | 21 | 207 | 20.9 | 43.5 | 0.00 | 0.00 | 0.00 | 30 | 1008.5 |
| 20260504204603 | 21 | 229 | 27.4 | 38.6 | 0.00 | 0.00 | 0.00 | 30 | 1008.4 |
| 20260504203603 | 21 | 233 | 20.9 | 43.5 | 0.00 | 0.00 | 0.00 | 30 | 1008.6 |
| 20260504202623 | 21 | 206 | 20.9 | 33.8 | 0.00 | 0.00 | 0.00 | 29 | 1008.5 |
| 20260504201603 | 21 | 234 | 27.4 | 46.7 | 0.00 | 0.00 | 0.00 | 29 | 1008.6 |
| 20260504200602 | 21 | 253 | 24.1 | 45.1 | 0.00 | 0.00 | 0.00 | 29 | 1008.6 |
| 20260504195603 | 21 | 227 | 29.0 | 48.3 | 0.00 | 0.00 | 0.00 | 29 | 1008.7 |
| 20260504194602 | 21 | 212 | 29.0 | 41.8 | 0.00 | 0.00 | 0.00 | 29 | 1008.7 |
| 20260504193603 | 21 | 217 | 30.6 | 49.9 | 0.00 | 0.00 | 0.00 | 29 | 1008.6 |
| 20260504192603 | 21 | 225 | 25.7 | 46.7 | 0.00 | 0.00 | 0.00 | 28 | 1008.7 |
| 20260504191603 | 21 | 227 | 37.0 | 54.7 | 0.00 | 0.00 | 0.00 | 28 | 1008.7 |
| 20260504190602 | 21 | 246 | 24.1 | 48.3 | 0.00 | 0.00 | 0.00 | 29 | 1008.7 |
| 20260504185603 | 21 | 231 | 35.4 | 54.7 | 0.00 | 0.00 | 0.00 | 28 | 1008.9 |
| 20260504184602 | 21 | 233 | 33.8 | 48.3 | 0.00 | 0.00 | 0.00 | 28 | 1008.9 |
| 20260504183603 | 20 | 228 | 25.7 | 59.5 | 0.00 | 0.00 | 0.00 | 29 | 1009.1 |
| 20260504182603 | 20 | 237 | 29.0 | 54.7 | 0.00 | 0.00 | 0.00 | 29 | 1009.1 |
| 20260504181603 | 20 | 257 | 27.4 | 43.5 | 0.00 | 0.00 | 0.00 | 29 | 1009.2 |
| 20260504175603 | 20 | 233 | 25.7 | 57.9 | 0.00 | 0.00 | 0.00 | 29 | 1009.4 |
| 20260504174603 | 20 | 251 | 25.7 | 56.3 | 0.00 | 0.00 | 0.00 | 29 | 1009.4 |
| 20260504173623 | 20 | 234 | 41.8 | 56.3 | 0.00 | 0.00 | 0.00 | 29 | 1009.4 |
| 20260504172602 | 20 | 239 | 27.4 | 54.7 | 0.00 | 0.00 | 0.00 | 29 | 1009.3 |
| 20260504171603 | 20 | 230 | 41.8 | 59.5 | 0.00 | 0.00 | 0.00 | 28 | 1009.4 |
| 20260504170602 | 20 | 226 | 25.7 | 62.8 | 0.00 | 0.00 | 0.00 | 30 | 1009.5 |
| 20260504150603 | 17 | 261 | 30.6 | 51.5 | 0.00 | 0.00 | 0.00 | 35 | 1010.9 |
| 20260504140624 | 16 | 252 | 24.1 | 40.2 | 0.00 | 0.00 | 0.00 | 38 | 1011.5 |
| 20260504130603 | 13 | 246 | 19.3 | 35.4 | 0.00 | 0.00 | 0.00 | 45 | 1012.1 |
| 20260504110603 | 8 | 230 | 20.9 | 29.0 | 0.00 | 0.00 | 0.00 | 52 | 1012.1 |
| 20260504100603 | 7 | 234 | 24.1 | 30.6 | 0.00 | 0.00 | 0.00 | 53 | 1012.0 |
| 20260504081623 | 7 | 239 | 19.3 | 25.7 | 0.00 | 0.00 | 0.00 | 51 | 1012.0 |
| 20260504080603 | 7 | 238 | 19.3 | 24.1 | 0.00 | 0.00 | 0.00 | 50 | 1012.0 |